Time,TemperatureF,DewpointF,PressureIn,WindDirection,WindDirectionDegrees,WindSpeedMPH,WindSpeedGustMPH,Humidity,HourlyPrecipIn,Conditions,Clouds,dailyrainin,SoftwareType,DateUTC
2013-03-22 00:14:00,39.6,8.0,29.77,West,277,0.0,-999.0,27,-99.99,,,0.00,weatherlink.com 1.10,2013-03-22 06:14:00,
2013-03-22 00:29:00,38.8,8.0,29.76,West,277,0.0,-999.0,28,-99.99,,,0.00,weatherlink.com 1.10,2013-03-22 06:29:00,
2013-03-22 00:44:00,38.9,8.0,29.76,West,277,0.0,-999.0,28,-99.99,,,0.00,weatherlink.com 1.10,2013-03-22 06:44:00,
2013-03-22 01:00:00,39.2,7.0,29.75,ESE,112,0.0,-999.0,26,-99.99,,,0.00,weatherlink.com 1.10,2013-03-22 07:00:00,
2013-03-22 01:15:00,39.5,6.0,29.75,ESE,112,0.0,-999.0,25,-99.99,,,0.00,weatherlink.com 1.10,2013-03-22 07:15:00,
2013-03-22 01:30:00,38.9,7.0,29.73,ESE,112,0.0,-999.0,26,-99.99,,,0.00,weatherlink.com 1.10,2013-03-22 07:30:00,
2013-03-22 01:45:00,38.5,7.0,29.73,ESE,112,0.0,-999.0,27,-99.99,,,0.00,weatherlink.com 1.10,2013-03-22 07:45:00,
2013-03-22 02:00:00,38.5,7.0,29.73,ESE,112,1.0,-999.0,27,-99.99,,,0.00,weatherlink.com 1.10,2013-03-22 08:00:00,
2013-03-22 02:15:00,38.8,7.0,29.73,ESE,112,0.0,-999.0,27,-99.99,,,0.00,weatherlink.com 1.10,2013-03-22 08:15:00,
2013-03-22 02:30:00,38.6,8.0,29.73,ESE,112,0.0,-999.0,28,-99.99,,,0.00,weatherlink.com 1.10,2013-03-22 08:30:00,
2013-03-22 02:45:00,38.5,8.0,29.73,ESE,112,0.0,-999.0,28,-99.99,,,0.00,weatherlink.com 1.10,2013-03-22 08:45:00,
2013-03-22 03:00:00,38.8,8.0,29.73,ESE,112,0.0,-999.0,28,-99.99,,,0.00,weatherlink.com 1.10,2013-03-22 09:00:00,
2013-03-22 03:15:00,39.3,7.0,29.72,ESE,112,0.0,-999.0,26,-99.99,,,0.00,weatherlink.com 1.10,2013-03-22 09:15:00,
2013-03-22 03:30:00,40.1,7.0,29.71,ESE,112,0.0,-999.0,25,-99.99,,,0.00,weatherlink.com 1.10,2013-03-22 09:30:00,
2013-03-22 03:45:00,40.6,6.0,29.70,ESE,113,0.0,-999.0,24,-99.99,,,0.00,weatherlink.com 1.10,2013-03-22 09:45:00,
2013-03-22 04:00:00,40.3,9.0,29.70,SW,227,0.0,-999.0,27,-99.99,,,0.00,weatherlink.com 1.10,2013-03-22 10:00:00,
2013-03-22 04:15:00,39.3,11.0,29.69,SW,227,1.0,-999.0,31,-99.99,,,0.00,weatherlink.com 1.10,2013-03-22 10:15:00,
2013-03-22 04:30:00,38.8,11.0,29.70,SW,228,0.0,-999.0,32,-99.99,,,0.00,weatherlink.com 1.10,2013-03-22 10:30:00,
2013-03-22 04:45:00,38.3,11.0,29.70,SW,227,0.0,-999.0,32,-99.99,,,0.00,weatherlink.com 1.10,2013-03-22 10:45:00,
2013-03-22 05:00:00,37.9,11.0,29.70,SW,227,0.0,-999.0,33,-99.99,,,0.00,weatherlink.com 1.10,2013-03-22 11:00:00,
2013-03-22 05:15:00,37.2,11.0,29.70,SW,227,0.0,-999.0,34,-99.99,,,0.00,weatherlink.com 1.10,2013-03-22 11:15:00,
2013-03-22 05:30:00,36.8,12.0,29.71,SW,227,0.0,-999.0,36,-99.99,,,0.00,weatherlink.com 1.10,2013-03-22 11:30:00,
2013-03-22 05:45:00,36.5,11.0,29.70,SW,227,0.0,-999.0,35,-99.99,,,0.00,weatherlink.com 1.10,2013-03-22 11:45:00,
2013-03-22 06:00:00,36.0,11.0,29.70,SW,227,0.0,-999.0,35,-99.99,,,0.00,weatherlink.com 1.10,2013-03-22 12:00:00,
2013-03-22 06:15:00,35.5,11.0,29.71,SW,227,0.0,-999.0,36,-99.99,,,0.00,weatherlink.com 1.10,2013-03-22 12:15:00,
2013-03-22 06:30:00,35.5,10.0,29.72,SW,227,0.0,-999.0,34,-99.99,,,0.00,weatherlink.com 1.10,2013-03-22 12:30:00,
2013-03-22 06:45:00,35.0,9.0,29.73,SW,227,0.0,-999.0,34,-99.99,,,0.00,weatherlink.com 1.10,2013-03-22 12:45:00,
2013-03-22 07:00:00,35.2,9.0,29.73,SW,227,0.0,-999.0,34,-99.99,,,0.00,weatherlink.com 1.10,2013-03-22 13:00:00,
2013-03-22 07:15:00,35.0,9.0,29.73,SE,138,0.0,-999.0,34,-99.99,,,0.00,weatherlink.com 1.10,2013-03-22 13:15:00,
2013-03-22 07:30:00,34.3,8.0,29.74,SE,138,0.0,-999.0,34,-99.99,,,0.00,weatherlink.com 1.10,2013-03-22 13:30:00,
2013-03-22 07:45:00,34.9,8.0,29.73,SE,131,0.0,-999.0,32,-99.99,,,0.00,weatherlink.com 1.10,2013-03-22 13:45:00,
2013-03-22 08:00:00,36.9,6.0,29.72,ESE,112,0.0,-999.0,27,-99.99,,,0.00,weatherlink.com 1.10,2013-03-22 14:00:00,
2013-03-22 08:15:00,37.9,8.0,29.75,West,275,0.0,-999.0,29,-99.99,,,0.00,weatherlink.com 1.10,2013-03-22 14:15:00,
2013-03-22 08:30:00,37.9,10.0,29.75,North,5,1.0,-999.0,32,-99.99,,,0.00,weatherlink.com 1.10,2013-03-22 14:30:00,
2013-03-22 08:45:00,38.9,9.0,29.74,North,5,0.0,-999.0,29,-99.99,,,0.00,weatherlink.com 1.10,2013-03-22 14:45:00,
2013-03-22 10:31:00,47.9,3.0,29.71,WSW,257,0.0,-999.0,16,-99.99,,,0.00,weatherlink.com 1.10,2013-03-22 16:31:00,
2013-03-22 10:46:00,49.1,4.0,29.69,WNW,290,0.0,-999.0,16,-99.99,,,0.00,weatherlink.com 1.10,2013-03-22 16:46:00,
2013-03-22 11:01:00,50.7,4.0,29.67,WNW,298,4.0,-999.0,15,-99.99,,,0.00,weatherlink.com 1.10,2013-03-22 17:01:00,
2013-03-22 11:16:00,51.1,5.0,29.68,NNW,348,2.0,-999.0,15,-99.99,,,0.00,weatherlink.com 1.10,2013-03-22 17:16:00,
2013-03-22 11:31:00,52.2,4.0,29.66,ENE,61,2.0,-999.0,14,-99.99,,,0.00,weatherlink.com 1.10,2013-03-22 17:31:00,
2013-03-22 11:46:00,53.6,4.0,29.65,East,97,2.0,-999.0,13,-99.99,,,0.00,weatherlink.com 1.10,2013-03-22 17:46:00,
2013-03-22 12:01:00,52.8,5.0,29.65,North,355,2.0,-999.0,14,-99.99,,,0.00,weatherlink.com 1.10,2013-03-22 18:01:00,
2013-03-22 12:16:00,53.1,3.0,29.64,West,281,0.0,-999.0,13,-99.99,,,0.00,weatherlink.com 1.10,2013-03-22 18:16:00,
2013-03-22 12:46:00,54.8,3.0,29.61,SW,227,1.0,-999.0,12,-99.99,,,0.00,weatherlink.com 1.10,2013-03-22 18:46:00,
2013-03-22 13:01:00,55.1,5.0,29.59,NNE,16,2.0,-999.0,13,-99.99,,,0.00,weatherlink.com 1.10,2013-03-22 19:01:00,
2013-03-22 13:16:00,56.5,4.0,29.59,NNW,340,5.0,-999.0,12,-99.99,,,0.00,weatherlink.com 1.10,2013-03-22 19:16:00,
2013-03-22 13:46:00,56.7,4.0,29.56,SE,145,4.0,-999.0,12,-99.99,,,0.00,weatherlink.com 1.10,2013-03-22 19:46:00,
2013-03-22 14:01:00,57.6,3.0,29.55,South,180,9.0,-999.0,11,-99.99,,,0.00,weatherlink.com 1.10,2013-03-22 20:01:00,
2013-03-22 14:16:00,58.4,4.0,29.55,NNE,29,2.0,-999.0,11,-99.99,,,0.00,weatherlink.com 1.10,2013-03-22 20:16:00,
2013-03-22 14:31:00,58.7,2.0,29.52,WNW,284,5.0,-999.0,10,-99.99,,,0.00,weatherlink.com 1.10,2013-03-22 20:31:00,
2013-03-22 14:46:00,59.6,5.0,29.52,WNW,300,2.0,-999.0,11,-99.99,,,0.00,weatherlink.com 1.10,2013-03-22 20:46:00,
2013-03-22 15:01:00,59.2,4.0,29.52,NW,324,6.0,-999.0,11,-99.99,,,0.00,weatherlink.com 1.10,2013-03-22 21:01:00,
2013-03-22 15:16:00,58.9,4.0,29.52,WNW,286,10.0,-999.0,11,-99.99,,,0.00,weatherlink.com 1.10,2013-03-22 21:16:00,
2013-03-22 15:31:00,59.0,4.0,29.52,NNW,332,10.0,-999.0,11,-99.99,,,0.00,weatherlink.com 1.10,2013-03-22 21:31:00,
2013-03-22 15:46:00,58.4,4.0,29.52,West,267,4.0,-999.0,11,-99.99,,,0.00,weatherlink.com 1.10,2013-03-22 21:46:00,
2013-03-22 16:01:00,58.4,4.0,29.51,NW,317,11.0,-999.0,11,-99.99,,,0.00,weatherlink.com 1.10,2013-03-22 22:01:00,
2013-03-22 16:17:00,58.7,2.0,29.52,NNW,336,5.0,-999.0,10,-99.99,,,0.00,weatherlink.com 1.10,2013-03-22 22:17:00,
2013-03-22 16:31:00,58.1,-1.0,29.53,North,5,6.0,-999.0,9,-99.99,,,0.00,weatherlink.com 1.10,2013-03-22 22:31:00,
2013-03-22 17:01:00,56.5,0.0,29.56,NNW,333,9.0,-999.0,10,-99.99,,,0.00,weatherlink.com 1.10,2013-03-22 23:01:00,
2013-03-22 17:17:00,55.3,1.0,29.58,North,355,15.0,-999.0,11,-99.99,,,0.00,weatherlink.com 1.10,2013-03-22 23:17:00,
2013-03-22 17:32:00,54.5,3.0,29.59,NNW,333,11.0,-999.0,12,-99.99,,,0.00,weatherlink.com 1.10,2013-03-22 23:32:00,
2013-03-22 17:47:00,53.9,4.0,29.59,WNW,283,7.0,-999.0,13,-99.99,,,0.00,weatherlink.com 1.10,2013-03-22 23:47:00,
2013-03-22 18:02:00,53.5,5.0,29.60,NW,316,5.0,-999.0,14,-99.99,,,0.00,weatherlink.com 1.10,2013-03-23 00:02:00,
2013-03-22 18:17:00,52.6,6.0,29.62,WNW,298,4.0,-999.0,15,-99.99,,,0.00,weatherlink.com 1.10,2013-03-23 00:17:00,
2013-03-22 18:47:00,50.5,7.0,29.65,NNW,345,11.0,-999.0,17,-99.99,,,0.00,weatherlink.com 1.10,2013-03-23 00:47:00,
2013-03-22 19:02:00,50.1,5.0,29.66,North,350,5.0,-999.0,16,-99.99,,,0.00,weatherlink.com 1.10,2013-03-23 01:02:00,
2013-03-22 19:17:00,49.5,6.0,29.65,NNE,28,5.0,-999.0,17,-99.99,,,0.00,weatherlink.com 1.10,2013-03-23 01:17:00,
2013-03-22 19:32:00,48.6,7.0,29.66,NNW,331,4.0,-999.0,18,-99.99,,,0.00,weatherlink.com 1.10,2013-03-23 01:32:00,
2013-03-22 19:47:00,47.9,7.0,29.69,NNW,341,4.0,-999.0,19,-99.99,,,0.00,weatherlink.com 1.10,2013-03-23 01:47:00,
2013-03-22 20:02:00,47.3,7.0,29.70,NNW,341,0.0,-999.0,19,-99.99,,,0.00,weatherlink.com 1.10,2013-03-23 02:02:00,
2013-03-22 20:17:00,46.7,7.0,29.69,WNW,303,2.0,-999.0,20,-99.99,,,0.00,weatherlink.com 1.10,2013-03-23 02:17:00,
2013-03-22 20:33:00,46.2,8.0,29.70,WNW,290,1.0,-999.0,21,-99.99,,,0.00,weatherlink.com 1.10,2013-03-23 02:33:00,
2013-03-22 20:48:00,45.7,8.0,29.70,WNW,301,7.0,-999.0,21,-99.99,,,0.00,weatherlink.com 1.10,2013-03-23 02:48:00,
2013-03-22 21:03:00,44.5,8.0,29.73,WNW,288,7.0,-999.0,22,-99.99,,,0.00,weatherlink.com 1.10,2013-03-23 03:03:00,
2013-03-22 21:18:00,43.5,7.0,29.72,WNW,286,8.0,-999.0,22,-99.99,,,0.00,weatherlink.com 1.10,2013-03-23 03:18:00,
2013-03-22 21:33:00,42.9,5.0,29.74,WNW,287,6.0,-999.0,21,-99.99,,,0.00,weatherlink.com 1.10,2013-03-23 03:33:00,
2013-03-22 21:48:00,42.3,4.0,29.76,West,281,5.0,-999.0,20,-99.99,,,0.00,weatherlink.com 1.10,2013-03-23 03:48:00,
2013-03-22 22:03:00,41.9,3.0,29.77,WNW,293,4.0,-999.0,20,-99.99,,,0.00,weatherlink.com 1.10,2013-03-23 04:03:00,
2013-03-22 22:18:00,41.8,1.0,29.76,WNW,282,4.0,-999.0,18,-99.99,,,0.00,weatherlink.com 1.10,2013-03-23 04:18:00,
2013-03-22 22:33:00,41.9,0.0,29.76,NW,315,6.0,-999.0,17,-99.99,,,0.00,weatherlink.com 1.10,2013-03-23 04:33:00,
2013-03-22 22:48:00,41.5,-2.0,29.78,NW,309,5.0,-999.0,16,-99.99,,,0.00,weatherlink.com 1.10,2013-03-23 04:48:00,
2013-03-22 23:03:00,41.3,-2.0,29.79,WNW,286,6.0,-999.0,16,-99.99,,,0.00,weatherlink.com 1.10,2013-03-23 05:03:00,
2013-03-22 23:18:00,41.1,-4.0,29.79,WNW,302,6.0,-999.0,15,-99.99,,,0.00,weatherlink.com 1.10,2013-03-23 05:18:00,
2013-03-22 23:33:00,40.8,-4.0,29.79,WNW,301,8.0,-999.0,15,-99.99,,,0.00,weatherlink.com 1.10,2013-03-23 05:33:00,
2013-03-22 23:48:00,40.3,-6.0,29.79,WNW,298,5.0,-999.0,14,-99.99,,,0.00,weatherlink.com 1.10,2013-03-23 05:48:00,